CZ-6A DEB

Satellite information

Favourite Embed

Satellite Type and Status

DEBRISIN ORBIT

Key statistics

Satellite CZ-6A DEB at a glance.

Uptime

1078

Days in orbit

Revolutions

≈ 14.2

Per day

Orbit

SSO

Sun Synchronous Orbit

Inclination

98.8

Latest

Satellite identification and parameters

Extended collection of information and parameters for CZ-6A DEB.

Object identification

Identified? True

Debris? True

Object name: CZ-6A DEB

International designator: 2022-151UB

Object number (NORAD): 54986

Object ID (CCSDS): 54986

Country: PEOPLES REPUBLIC OF CHINA (PRC)

Current information (Y/N): Y

RCS size: SMALL

Orbital parameters

Period: 101.488 minutes

Inclination: 98.8133 deg

SMA: 7207.253 km

Apoapsis: 857.796 km

Periapsis: 800.439 km

RAAN: 300.9756 deg

Eccentricy: 0.00397912

Argument of periapsis: 249.0731 deg

Mean anomaly: 110.6183 deg

Mean motion: 14.18888009 rev/day

Mean motion (dot): 0.00003954 rev/day2

B* drag term: 0.0019045302 1/REarth

Two-line elements (TLE)

Creation date: Oct. 24, 2025, 2:48 a.m.

Reference frame: TEME

Reference center: EARTH

Epoch: Oct. 23, 2025, 11:29 p.m. UTC

TLE line 0: 0 CZ-6A DEB

TLE line 1: 1 54986U 22151UB 25296.97877776 .00003954 00000-0 19045-2 0 9997

TLE line 2: 2 54986 98.8133 300.9756 0039791 249.0731 110.6183 14.18888009150857

Live tracking on map

Real-time ground track for satellite CZ-6A DEB.

In-orbit conjunctions

A list of the most updated potential collisions computed for object CZ-6A DEB.

Target Orbit TCA Probability of collision Miss distance Type
CZ-6A DEB LEO 2025-09-24 21:47:38 0.000101785 282.0 (m) DEBRIS
SL-3 R/B LEO 2024-10-04 23:39:57 0.0001265229 114.0 (m) ROCKET BODY

Associated space launch

Chinese satellite reported for atmospheric/ocean/environmental/spatial parameter research purposes, details TBD.

CZ-6A DEB was lifted into orbit during the mission ‘Long March 6A | Yunhai 3’, on board a Long March 6A space rocket.

The launch took place on Nov. 11, 2022, 10:52 p.m. from Launch Complex 9A.

For more information about the launch, click the button.

Launch to space Long March 6A | Yunhai 3
Long March 6A | Yunhai 3

Agency: N/A

Status: Launch Successful

Launch date: Nov. 11, 2022, 10:52 p.m. UTC

Rocket: Long March 6A

Launch pad: Launch Complex 9A

Location: Taiyuan Satellite Launch Center, People's Republic of China

...

Latest news about this satellite

There are no fresh news available about this satellite. Check back as we update our databases every day.


Newsletter sign-up

Weekly statistics, charts and insights to help you stay on top of the space industry.